Regional Weather Roundup
Issued by NWS

Home | Current Version | Previous Version | Text Only | Print | Product List | Glossary On
Versions: 1 2 3 4 5 6 7 8 9 10 11 12 13 14 15 16 17 18 19 20 21 22 23 24 25 26 27 28 29 30 31 32 33 34 35 36 37 38 39 40 41 42 43 44 45 46 47 48 49 50
000
ASUS42 KKEY 040210
RWRKEY

FLORIDA REGIONAL WEATHER ROUNDUP FOR THE FLORIDA KEYS
NATIONAL WEATHER SERVICE KEY WEST FLORIDA
1000 PM EDT MON AUG 03 2015

...SOUTH FLORIDA AND THE KEYS...

CITY           SKY/WX    TMP DP  RH WIND       PRES   REMARKS
FORT MYERS     CLOUDY    80  70  71 NE3       30.00R
SW REGIONAL AP MOCLDY    80  70  71 E3        30.01R
NAPLES         MOCLDY    84  70  62 CALM      30.00R
MIAMI          PTCLDY    80  72  76 CALM      30.03R
WEST KENDALL   CLEAR     76  73  91 CALM      30.03R
HOMESTEAD      CLEAR     77  72  82 SW1       30.02S
MARATHON       PTCLDY    84  71  65 NE6       30.02R
BOCA CHICA NAS MOCLDY    80  74  81 NE5       30.01R
KEY WEST INTL  MOCLDY    79  75  87 E5        30.01R

...INTERNATIONAL WEATHER...

CITY           SKY/WX    TMP DP  RH WIND       PRES   REMARKS
NASSAU BAHAMAS PTCLDY    84  73  70 E3        30.04R HX  91
CANCUN MEXICO  PTCLDY    82  75  78 E3        29.97R
COZUMEL MEXICO PTCLDY    77  75  94 CALM      29.97R

ADJACENT COASTAL WATERS...

STATION/POSITION TIME  SKY/WX   TEMP    WIND        PRES    WAVE
                                AIR SEA DIR/SP/G            HT/PER
                 (UTC)          (F)     (DEG/KT/KT) (MB)    (FT/S)
PULASKI SHOAL LI 0100            81     110/ 10/ 11 1015.5R
SAND KEY         0150            82      90/  6/ 11 1016.1R
SOMBRERO KEY     0200            85      80/  9/ 10 1017.0R
LONG KEY         0100            83 88   20/  7/  9 1016.8R
MOLASSES REEF    0200            83 87   20/  4/  4 1016.8R
FOWEY ROCKS      NOT AVBL

$$


USA.gov is the U.S. government's official web portal to all federal, state and local government web resources and services.